owner,sensor,date,latitude,longitude,sea_water_turbidity,qcFlag 
SCCF RECON,ioos:station:SCCF:11:1,2014-08-01T00:00:00Z,26.4679,-82.0631,4.34,1111122 
SCCF RECON,ioos:station:SCCF:11:1,2014-08-01T01:00:00Z,26.4679,-82.0631,4.76,1111122 
SCCF RECON,ioos:station:SCCF:11:1,2014-08-01T02:00:00Z,26.4679,-82.0631,5.84,1111122 
SCCF RECON,ioos:station:SCCF:11:1,2014-08-01T03:00:00Z,26.4679,-82.0631,3.96,1111122 
SCCF RECON,ioos:station:SCCF:11:1,2014-08-01T04:00:00Z,26.4679,-82.0631,3.44,1111122 
SCCF RECON,ioos:station:SCCF:11:1,2014-08-01T05:00:00Z,26.4679,-82.0631,10.18,1111122 
SCCF RECON,ioos:station:SCCF:11:1,2014-08-01T06:00:00Z,26.4679,-82.0631,10.87,1111122 
SCCF RECON,ioos:station:SCCF:11:1,2014-08-01T07:00:00Z,26.4679,-82.0631,6.64,1111122 
SCCF RECON,ioos:station:SCCF:11:1,2014-08-01T08:00:00Z,26.4679,-82.0631,8.41,1111122 
SCCF RECON,ioos:station:SCCF:11:1,2014-08-01T09:00:00Z,26.4679,-82.0631,5.83,1111122 
SCCF RECON,ioos:station:SCCF:11:1,2014-08-01T10:00:00Z,26.4679,-82.0631,6.23,1111122 
SCCF RECON,ioos:station:SCCF:11:1,2014-08-01T11:00:00Z,26.4679,-82.0631,5.81,1111122 
SCCF RECON,ioos:station:SCCF:11:1,2014-08-01T12:00:00Z,26.4679,-82.0631,4.65,1111122 
SCCF RECON,ioos:station:SCCF:11:1,2014-08-01T13:00:00Z,26.4679,-82.0631,3.8,1111122 
SCCF RECON,ioos:station:SCCF:11:1,2014-08-01T14:00:00Z,26.4679,-82.0631,3.54,1111122 
SCCF RECON,ioos:station:SCCF:11:1,2014-08-01T15:00:00Z,26.4679,-82.0631,3.23,1111122 
SCCF RECON,ioos:station:SCCF:11:1,2014-08-01T16:00:00Z,26.4679,-82.0631,3.54,1111122 
SCCF RECON,ioos:station:SCCF:11:1,2014-08-01T17:00:00Z,26.4679,-82.0631,3.62,1111122 
SCCF RECON,ioos:station:SCCF:11:1,2014-08-01T18:00:00Z,26.4679,-82.0631,4.21,1111122 
SCCF RECON,ioos:station:SCCF:11:1,2014-08-01T19:00:00Z,26.4679,-82.0631,5.47,1111122 
SCCF RECON,ioos:station:SCCF:11:1,2014-08-01T20:00:00Z,26.4679,-82.0631,4.05,1111122 
SCCF RECON,ioos:station:SCCF:11:1,2014-08-01T21:00:00Z,26.4679,-82.0631,4.08,1111122 
SCCF RECON,ioos:station:SCCF:11:1,2014-08-01T22:00:00Z,26.4679,-82.0631,3.27,1111122 
SCCF RECON,ioos:station:SCCF:11:1,2014-08-01T23:00:00Z,26.4679,-82.0631,3.53,1111122 
SCCF RECON,ioos:station:SCCF:11:1,2014-08-02T00:00:00Z,26.4679,-82.0631,3.81,1111122 
SCCF RECON,ioos:station:SCCF:11:1,2014-08-02T01:00:00Z,26.4679,-82.0631,4.54,1111122 
SCCF RECON,ioos:station:SCCF:11:1,2014-08-02T02:00:00Z,26.4679,-82.0631,4.46,1111122 
SCCF RECON,ioos:station:SCCF:11:1,2014-08-02T03:00:00Z,26.4679,-82.0631,4.72,1111122 
SCCF RECON,ioos:station:SCCF:11:1,2014-08-02T04:00:00Z,26.4679,-82.0631,5.09,1111122 
SCCF RECON,ioos:station:SCCF:11:1,2014-08-02T05:00:00Z,26.4679,-82.0631,4.42,1111122 
SCCF RECON,ioos:station:SCCF:11:1,2014-08-02T06:00:00Z,26.4679,-82.0631,7.8,1111122 
SCCF RECON,ioos:station:SCCF:11:1,2014-08-02T07:00:00Z,26.4679,-82.0631,6.41,1111122 
SCCF RECON,ioos:station:SCCF:11:1,2014-08-02T08:00:00Z,26.4679,-82.0631,5.95,1111122 
SCCF RECON,ioos:station:SCCF:11:1,2014-08-02T09:00:00Z,26.4679,-82.0631,6.04,1111122 
SCCF RECON,ioos:station:SCCF:11:1,2014-08-02T10:00:00Z,26.4679,-82.0631,11.47,1111122 
SCCF RECON,ioos:station:SCCF:11:1,2014-08-02T11:00:00Z,26.4679,-82.0631,4.35,1111122 
SCCF RECON,ioos:station:SCCF:11:1,2014-08-02T12:00:00Z,26.4679,-82.0631,4.47,1111122 
SCCF RECON,ioos:station:SCCF:11:1,2014-08-02T13:00:00Z,26.4679,-82.0631,4.36,1111122 
SCCF RECON,ioos:station:SCCF:11:1,2014-08-02T14:00:00Z,26.4679,-82.0631,3.93,1111122 
SCCF RECON,ioos:station:SCCF:11:1,2014-08-02T15:00:00Z,26.4679,-82.0631,4.06,1111122 
SCCF RECON,ioos:station:SCCF:11:1,2014-08-02T16:00:00Z,26.4679,-82.0631,4.33,1111122 
SCCF RECON,ioos:station:SCCF:11:1,2014-08-02T17:00:00Z,26.4679,-82.0631,4.23,1111122 
SCCF RECON,ioos:station:SCCF:11:1,2014-08-02T18:00:00Z,26.4679,-82.0631,3.8,1111122 
SCCF RECON,ioos:station:SCCF:11:1,2014-08-02T19:00:00Z,26.4679,-82.0631,4.67,1111122 
SCCF RECON,ioos:station:SCCF:11:1,2014-08-02T20:00:00Z,26.4679,-82.0631,4.4,1111122 
SCCF RECON,ioos:station:SCCF:11:1,2014-08-02T21:00:00Z,26.4679,-82.0631,4.46,1111122 
SCCF RECON,ioos:station:SCCF:11:1,2014-08-02T22:00:00Z,26.4679,-82.0631,3.63,1111122 
SCCF RECON,ioos:station:SCCF:11:1,2014-08-02T23:00:00Z,26.4679,-82.0631,9.84,1111122 
SCCF RECON,ioos:station:SCCF:11:1,2014-08-03T00:00:00Z,26.4679,-82.0631,5.07,1111122 
SCCF RECON,ioos:station:SCCF:11:1,2014-08-03T01:00:00Z,26.4679,-82.0631,6.04,1111122 
SCCF RECON,ioos:station:SCCF:11:1,2014-08-03T02:00:00Z,26.4679,-82.0631,6.94,1111122 
SCCF RECON,ioos:station:SCCF:11:1,2014-08-03T03:00:00Z,26.4679,-82.0631,5.37,1111122 
SCCF RECON,ioos:station:SCCF:11:1,2014-08-03T04:00:00Z,26.4679,-82.0631,5.39,1111122 
SCCF RECON,ioos:station:SCCF:11:1,2014-08-03T05:00:00Z,26.4679,-82.0631,4.57,1111122 
SCCF RECON,ioos:station:SCCF:11:1,2014-08-03T06:00:00Z,26.4679,-82.0631,5.64,1111122 
SCCF RECON,ioos:station:SCCF:11:1,2014-08-03T07:00:00Z,26.4679,-82.0631,7.19,1111122 
SCCF RECON,ioos:station:SCCF:11:1,2014-08-03T08:00:00Z,26.4679,-82.0631,7.06,1111122 
SCCF RECON,ioos:station:SCCF:11:1,2014-08-03T09:00:00Z,26.4679,-82.0631,6.78,1111122 
SCCF RECON,ioos:station:SCCF:11:1,2014-08-03T10:00:00Z,26.4679,-82.0631,6.57,1111122 
SCCF RECON,ioos:station:SCCF:11:1,2014-08-03T11:00:00Z,26.4679,-82.0631,5.96,1111122 
SCCF RECON,ioos:station:SCCF:11:1,2014-08-03T12:00:00Z,26.4679,-82.0631,6.18,1111122 
SCCF RECON,ioos:station:SCCF:11:1,2014-08-03T13:00:00Z,26.4679,-82.0631,5.61,1111122 
SCCF RECON,ioos:station:SCCF:11:1,2014-08-03T14:00:00Z,26.4679,-82.0631,5.26,1111122 
SCCF RECON,ioos:station:SCCF:11:1,2014-08-03T15:00:00Z,26.4679,-82.0631,6.59,1111122 
SCCF RECON,ioos:station:SCCF:11:1,2014-08-03T16:00:00Z,26.4679,-82.0631,5.45,1111122 
SCCF RECON,ioos:station:SCCF:11:1,2014-08-03T17:00:00Z,26.4679,-82.0631,5.17,1111122 
SCCF RECON,ioos:station:SCCF:11:1,2014-08-03T18:00:00Z,26.4679,-82.0631,5.36,1111122 
SCCF RECON,ioos:station:SCCF:11:1,2014-08-03T19:00:00Z,26.4679,-82.0631,5.67,1111122 
SCCF RECON,ioos:station:SCCF:11:1,2014-08-03T20:00:00Z,26.4679,-82.0631,6.09,1111122 
SCCF RECON,ioos:station:SCCF:11:1,2014-08-03T21:00:00Z,26.4679,-82.0631,6.36,1111122 
SCCF RECON,ioos:station:SCCF:11:1,2014-08-03T22:00:00Z,26.4679,-82.0631,6.26,1111122 
SCCF RECON,ioos:station:SCCF:11:1,2014-08-03T23:00:00Z,26.4679,-82.0631,6.92,1111122 
SCCF RECON,ioos:station:SCCF:11:1,2014-08-04T00:00:00Z,26.4679,-82.0631,7.2,1111122 
SCCF RECON,ioos:station:SCCF:11:1,2014-08-04T01:00:00Z,26.4679,-82.0631,8.12,1111122 
SCCF RECON,ioos:station:SCCF:11:1,2014-08-04T02:00:00Z,26.4679,-82.0631,8.55,1111122 
SCCF RECON,ioos:station:SCCF:11:1,2014-08-04T03:00:00Z,26.4679,-82.0631,7.7,1111122 
SCCF RECON,ioos:station:SCCF:11:1,2014-08-04T04:00:00Z,26.4679,-82.0631,9.91,1111122 
SCCF RECON,ioos:station:SCCF:11:1,2014-08-04T05:00:00Z,26.4679,-82.0631,8.86,1111122 
SCCF RECON,ioos:station:SCCF:11:1,2014-08-04T06:00:00Z,26.4679,-82.0631,8.22,1111122 
SCCF RECON,ioos:station:SCCF:11:1,2014-08-04T07:00:00Z,26.4679,-82.0631,11.5,1111122 
SCCF RECON,ioos:station:SCCF:11:1,2014-08-04T08:00:00Z,26.4679,-82.0631,9.86,1111122 
SCCF RECON,ioos:station:SCCF:11:1,2014-08-04T09:00:00Z,26.4679,-82.0631,8.44,1111122 
SCCF RECON,ioos:station:SCCF:11:1,2014-08-04T10:00:00Z,26.4679,-82.0631,8.19,1111122 
SCCF RECON,ioos:station:SCCF:11:1,2014-08-04T11:00:00Z,26.4679,-82.0631,9.88,1111122 
SCCF RECON,ioos:station:SCCF:11:1,2014-08-04T12:00:00Z,26.4679,-82.0631,9.42,1111122 
SCCF RECON,ioos:station:SCCF:11:1,2014-08-04T13:00:00Z,26.4679,-82.0631,7.61,1111122 
SCCF RECON,ioos:station:SCCF:11:1,2014-08-04T14:00:00Z,26.4679,-82.0631,7.45,1111122 
SCCF RECON,ioos:station:SCCF:11:1,2014-08-04T15:00:00Z,26.4679,-82.0631,7.12,1111122 
SCCF RECON,ioos:station:SCCF:11:1,2014-08-04T16:00:00Z,26.4679,-82.0631,7.23,1111122 
SCCF RECON,ioos:station:SCCF:11:1,2014-08-04T17:00:00Z,26.4679,-82.0631,9.51,1111122 
SCCF RECON,ioos:station:SCCF:11:1,2014-08-04T18:00:00Z,26.4679,-82.0631,8.56,1111122 
SCCF RECON,ioos:station:SCCF:11:1,2014-08-04T19:00:00Z,26.4679,-82.0631,7.47,1111122 
SCCF RECON,ioos:station:SCCF:11:1,2014-08-04T20:00:00Z,26.4679,-82.0631,7.11,1111122 
SCCF RECON,ioos:station:SCCF:11:1,2014-08-04T21:00:00Z,26.4679,-82.0631,7.39,1111122 
SCCF RECON,ioos:station:SCCF:11:1,2014-08-04T22:00:00Z,26.4679,-82.0631,7.92,1111122 
SCCF RECON,ioos:station:SCCF:11:1,2014-08-04T23:00:00Z,26.4679,-82.0631,7.97,1111122 
SCCF RECON,ioos:station:SCCF:11:1,2014-08-05T00:00:00Z,26.4679,-82.0631,8.65,1111122 
SCCF RECON,ioos:station:SCCF:11:1,2014-08-05T01:00:00Z,26.4679,-82.0631,18.25,1111122 
SCCF RECON,ioos:station:SCCF:11:1,2014-08-05T02:00:00Z,26.4679,-82.0631,8.98,1111122 
SCCF RECON,ioos:station:SCCF:11:1,2014-08-05T03:00:00Z,26.4679,-82.0631,9.53,1111122 
SCCF RECON,ioos:station:SCCF:11:1,2014-08-05T04:00:00Z,26.4679,-82.0631,9.08,1111122 
SCCF RECON,ioos:station:SCCF:11:1,2014-08-05T05:00:00Z,26.4679,-82.0631,8.38,1111122 
SCCF RECON,ioos:station:SCCF:11:1,2014-08-05T06:00:00Z,26.4679,-82.0631,9.92,1111122 
SCCF RECON,ioos:station:SCCF:11:1,2014-08-05T07:00:00Z,26.4679,-82.0631,15.26,1111122 
SCCF RECON,ioos:station:SCCF:11:1,2014-08-05T08:00:00Z,26.4679,-82.0631,10.56,1111122 
SCCF RECON,ioos:station:SCCF:11:1,2014-08-05T09:00:00Z,26.4679,-82.0631,11.05,1111122 
SCCF RECON,ioos:station:SCCF:11:1,2014-08-05T10:00:00Z,26.4679,-82.0631,11.84,1111122 
SCCF RECON,ioos:station:SCCF:11:1,2014-08-05T11:00:00Z,26.4679,-82.0631,11.54,1111122 
SCCF RECON,ioos:station:SCCF:11:1,2014-08-05T12:00:00Z,26.4679,-82.0631,13.42,1111122 
SCCF RECON,ioos:station:SCCF:11:1,2014-08-05T13:00:00Z,26.4679,-82.0631,12.17,1111122 
SCCF RECON,ioos:station:SCCF:11:1,2014-08-05T14:00:00Z,26.4679,-82.0631,11.56,1111122 
SCCF RECON,ioos:station:SCCF:11:1,2014-08-05T15:00:00Z,26.4679,-82.0631,12.26,1111122 
SCCF RECON,ioos:station:SCCF:11:1,2014-08-05T16:00:00Z,26.4679,-82.0631,11.39,1111122 
SCCF RECON,ioos:station:SCCF:11:1,2014-08-05T17:00:00Z,26.4679,-82.0631,10.68,1111122 
SCCF RECON,ioos:station:SCCF:11:1,2014-08-05T18:00:00Z,26.4679,-82.0631,10.96,1111122 
SCCF RECON,ioos:station:SCCF:11:1,2014-08-05T19:00:00Z,26.4679,-82.0631,10.93,1111122 
SCCF RECON,ioos:station:SCCF:11:1,2014-08-05T20:00:00Z,26.4679,-82.0631,11.49,1111122 
SCCF RECON,ioos:station:SCCF:11:1,2014-08-05T21:00:00Z,26.4679,-82.0631,11.92,1111122 
SCCF RECON,ioos:station:SCCF:11:1,2014-08-05T22:00:00Z,26.4679,-82.0631,13.67,1111122 
SCCF RECON,ioos:station:SCCF:11:1,2014-08-05T23:00:00Z,26.4679,-82.0631,14.8,1111122 
SCCF RECON,ioos:station:SCCF:11:1,2014-08-06T00:00:00Z,26.4679,-82.0631,12.63,1111122 
SCCF RECON,ioos:station:SCCF:11:1,2014-08-06T01:00:00Z,26.4679,-82.0631,13.08,1111122 
SCCF RECON,ioos:station:SCCF:11:1,2014-08-06T02:00:00Z,26.4679,-82.0631,29.17,1111122 
SCCF RECON,ioos:station:SCCF:11:1,2014-08-06T03:00:00Z,26.4679,-82.0631,13.71,1111122 
SCCF RECON,ioos:station:SCCF:11:1,2014-08-06T04:00:00Z,26.4679,-82.0631,13.97,1111122 
SCCF RECON,ioos:station:SCCF:11:1,2014-08-06T05:00:00Z,26.4679,-82.0631,14.43,1111122 
SCCF RECON,ioos:station:SCCF:11:1,2014-08-06T06:00:00Z,26.4679,-82.0631,12.74,1111122 
SCCF RECON,ioos:station:SCCF:11:1,2014-08-06T07:00:00Z,26.4679,-82.0631,14.04,1111122 
SCCF RECON,ioos:station:SCCF:11:1,2014-08-06T08:00:00Z,26.4679,-82.0631,22.76,1111122 
SCCF RECON,ioos:station:SCCF:11:1,2014-08-06T09:00:00Z,26.4679,-82.0631,14.55,1111122 
SCCF RECON,ioos:station:SCCF:11:1,2014-08-06T10:00:00Z,26.4679,-82.0631,15.67,1111122 
SCCF RECON,ioos:station:SCCF:11:1,2014-08-06T11:00:00Z,26.4679,-82.0631,15.45,1111122 
SCCF RECON,ioos:station:SCCF:11:1,2014-08-06T12:00:00Z,26.4679,-82.0631,16.03,1111122 
SCCF RECON,ioos:station:SCCF:11:1,2014-08-06T13:00:00Z,26.4679,-82.0631,16.69,1111122 
SCCF RECON,ioos:station:SCCF:11:1,2014-08-06T14:00:00Z,26.4679,-82.0631,17.35,1111122 
SCCF RECON,ioos:station:SCCF:11:1,2014-08-06T15:00:00Z,26.4679,-82.0631,17.71,1111122 
SCCF RECON,ioos:station:SCCF:11:1,2014-08-06T16:00:00Z,26.4679,-82.0631,18.47,1111122 
SCCF RECON,ioos:station:SCCF:11:1,2014-08-06T17:00:00Z,26.4679,-82.0631,19.76,1111122 
SCCF RECON,ioos:station:SCCF:11:1,2014-08-06T18:00:00Z,26.4679,-82.0631,22.55,1111122 
SCCF RECON,ioos:station:SCCF:11:1,2014-08-06T19:00:00Z,26.4679,-82.0631,19.87,1111122 
SCCF RECON,ioos:station:SCCF:11:1,2014-08-06T20:00:00Z,26.4679,-82.0631,21.95,1111122 
SCCF RECON,ioos:station:SCCF:11:1,2014-08-06T21:00:00Z,26.4679,-82.0631,20.14,1111122 
SCCF RECON,ioos:station:SCCF:11:1,2014-08-06T22:00:00Z,26.4679,-82.0631,19.39,1111122 
SCCF RECON,ioos:station:SCCF:11:1,2014-08-06T23:00:00Z,26.4679,-82.0631,20.58,1111122 
SCCF RECON,ioos:station:SCCF:11:1,2014-08-07T00:00:00Z,26.4679,-82.0631,21.05,1111122 
SCCF RECON,ioos:station:SCCF:11:1,2014-08-07T01:00:00Z,26.4679,-82.0631,21.27,1111122 
SCCF RECON,ioos:station:SCCF:11:1,2014-08-07T02:00:00Z,26.4679,-82.0631,21.26,1111122 
SCCF RECON,ioos:station:SCCF:11:1,2014-08-07T03:00:00Z,26.4679,-82.0631,22.58,1111122 
SCCF RECON,ioos:station:SCCF:11:1,2014-08-07T04:00:00Z,26.4679,-82.0631,22.6,1111122 
SCCF RECON,ioos:station:SCCF:11:1,2014-08-07T05:00:00Z,26.4679,-82.0631,21.71,1111122 
SCCF RECON,ioos:station:SCCF:11:1,2014-08-07T06:00:00Z,26.4679,-82.0631,22.79,1111122 
SCCF RECON,ioos:station:SCCF:11:1,2014-08-07T07:00:00Z,26.4679,-82.0631,24.22,1111122 
SCCF RECON,ioos:station:SCCF:11:1,2014-08-07T08:00:00Z,26.4679,-82.0631,23.04,1111122 
SCCF RECON,ioos:station:SCCF:11:1,2014-08-07T09:00:00Z,26.4679,-82.0631,26.1,1111122 
SCCF RECON,ioos:station:SCCF:11:1,2014-08-07T10:00:00Z,26.4679,-82.0631,25.6,1111122 
SCCF RECON,ioos:station:SCCF:11:1,2014-08-07T11:00:00Z,26.4679,-82.0631,27.98,1111122 
SCCF RECON,ioos:station:SCCF:11:1,2014-08-07T12:00:00Z,26.4679,-82.0631,25.86,1111122 
SCCF RECON,ioos:station:SCCF:11:1,2014-08-07T13:00:00Z,26.4679,-82.0631,25.53,1111122 
SCCF RECON,ioos:station:SCCF:11:1,2014-08-07T14:00:00Z,26.4679,-82.0631,26.52,1111122 
SCCF RECON,ioos:station:SCCF:11:1,2014-08-07T15:00:00Z,26.4679,-82.0631,22.98,1111122 
SCCF RECON,ioos:station:SCCF:11:1,2014-08-07T16:00:00Z,26.4679,-82.0631,25.62,1111122 
SCCF RECON,ioos:station:SCCF:11:1,2014-08-07T17:00:00Z,26.4679,-82.0631,25.92,1111122 
SCCF RECON,ioos:station:SCCF:11:1,2014-08-07T18:00:00Z,26.4679,-82.0631,25.62,1111122 
SCCF RECON,ioos:station:SCCF:11:1,2014-08-07T19:00:00Z,26.4679,-82.0631,25.29,1111122 
SCCF RECON,ioos:station:SCCF:11:1,2014-08-07T20:00:00Z,26.4679,-82.0631,25.92,1111122 
SCCF RECON,ioos:station:SCCF:11:1,2014-08-07T21:00:00Z,26.4679,-82.0631,26.22,1111122 
SCCF RECON,ioos:station:SCCF:11:1,2014-08-07T22:00:00Z,26.4679,-82.0631,26.11,1111122 
SCCF RECON,ioos:station:SCCF:11:1,2014-08-07T23:00:00Z,26.4679,-82.0631,26.76,1111122 
SCCF RECON,ioos:station:SCCF:11:1,2014-08-08T00:00:00Z,26.4679,-82.0631,31.63,1111122 
SCCF RECON,ioos:station:SCCF:11:1,2014-08-08T01:00:00Z,26.4679,-82.0631,31.29,1111122 
SCCF RECON,ioos:station:SCCF:11:1,2014-08-08T02:00:00Z,26.4679,-82.0631,34.58,1111122 
SCCF RECON,ioos:station:SCCF:11:1,2014-08-08T03:00:00Z,26.4679,-82.0631,37.09,1111122 
SCCF RECON,ioos:station:SCCF:11:1,2014-08-08T04:00:00Z,26.4679,-82.0631,37.49,1111122 
SCCF RECON,ioos:station:SCCF:11:1,2014-08-08T05:00:00Z,26.4679,-82.0631,33.67,1111122 
SCCF RECON,ioos:station:SCCF:11:1,2014-08-08T06:00:00Z,26.4679,-82.0631,32.63,1111122 
SCCF RECON,ioos:station:SCCF:11:1,2014-08-08T07:00:00Z,26.4679,-82.0631,34.36,1111122 
SCCF RECON,ioos:station:SCCF:11:1,2014-08-08T08:00:00Z,26.4679,-82.0631,34.51,1111122 
SCCF RECON,ioos:station:SCCF:11:1,2014-08-08T09:00:00Z,26.4679,-82.0631,32.6,1111122 
SCCF RECON,ioos:station:SCCF:11:1,2014-08-08T10:00:00Z,26.4679,-82.0631,35.69,1111122 
SCCF RECON,ioos:station:SCCF:11:1,2014-08-08T11:00:00Z,26.4679,-82.0631,38.97,1111122 
SCCF RECON,ioos:station:SCCF:11:1,2014-08-08T12:00:00Z,26.4679,-82.0631,38.81,1111122 
SCCF RECON,ioos:station:SCCF:11:1,2014-08-08T13:00:00Z,26.4679,-82.0631,38.79,1111122 
SCCF RECON,ioos:station:SCCF:11:1,2014-08-08T14:00:00Z,26.4679,-82.0631,37.16,1111122 
SCCF RECON,ioos:station:SCCF:11:1,2014-08-08T15:00:00Z,26.4679,-82.0631,35.56,1111122 
SCCF RECON,ioos:station:SCCF:11:1,2014-08-08T16:00:00Z,26.4679,-82.0631,35.15,1111122 
SCCF RECON,ioos:station:SCCF:11:1,2014-08-08T17:00:00Z,26.4679,-82.0631,36.1,1111122 
SCCF RECON,ioos:station:SCCF:11:1,2014-08-08T18:00:00Z,26.4679,-82.0631,35.83,1111122 
SCCF RECON,ioos:station:SCCF:11:1,2014-08-08T19:00:00Z,26.4679,-82.0631,35.82,1111122 
SCCF RECON,ioos:station:SCCF:11:1,2014-08-08T20:00:00Z,26.4679,-82.0631,35.44,1111122 
SCCF RECON,ioos:station:SCCF:11:1,2014-08-08T21:00:00Z,26.4679,-82.0631,34.84,1111122 
SCCF RECON,ioos:station:SCCF:11:1,2014-08-08T22:00:00Z,26.4679,-82.0631,34.51,1111122 
SCCF RECON,ioos:station:SCCF:11:1,2014-08-08T23:00:00Z,26.4679,-82.0631,38.45,1111122 
SCCF RECON,ioos:station:SCCF:11:1,2014-08-09T00:00:00Z,26.4679,-82.0631,41.02,1111122 
SCCF RECON,ioos:station:SCCF:11:1,2014-08-09T01:00:00Z,26.4679,-82.0631,43.32,1111122 
SCCF RECON,ioos:station:SCCF:11:1,2014-08-09T02:00:00Z,26.4679,-82.0631,45.09,1111122 
SCCF RECON,ioos:station:SCCF:11:1,2014-08-09T03:00:00Z,26.4679,-82.0631,44.01,1111122 
SCCF RECON,ioos:station:SCCF:11:1,2014-08-09T04:00:00Z,26.4679,-82.0631,46.76,1111122 
SCCF RECON,ioos:station:SCCF:11:1,2014-08-09T05:00:00Z,26.4679,-82.0631,45.3,1111122 
SCCF RECON,ioos:station:SCCF:11:1,2014-08-09T06:00:00Z,26.4679,-82.0631,46.36,1111122 
SCCF RECON,ioos:station:SCCF:11:1,2014-08-09T07:00:00Z,26.4679,-82.0631,46.46,1111122 
SCCF RECON,ioos:station:SCCF:11:1,2014-08-09T08:00:00Z,26.4679,-82.0631,47.79,1111122 
SCCF RECON,ioos:station:SCCF:11:1,2014-08-09T09:00:00Z,26.4679,-82.0631,49.63,1111122 
SCCF RECON,ioos:station:SCCF:11:1,2014-08-09T10:00:00Z,26.4679,-82.0631,50.36,1111122 
SCCF RECON,ioos:station:SCCF:11:1,2014-08-09T11:00:00Z,26.4679,-82.0631,49.24,1111122 
SCCF RECON,ioos:station:SCCF:11:1,2014-08-09T12:00:00Z,26.4679,-82.0631,49.18,1111122 
SCCF RECON,ioos:station:SCCF:11:1,2014-08-09T13:00:00Z,26.4679,-82.0631,50.46,1111122 
SCCF RECON,ioos:station:SCCF:11:1,2014-08-09T14:00:00Z,26.4679,-82.0631,48.9,1111122 
SCCF RECON,ioos:station:SCCF:11:1,2014-08-09T15:00:00Z,26.4679,-82.0631,49.44,1111122 
SCCF RECON,ioos:station:SCCF:11:1,2014-08-09T16:00:00Z,26.4679,-82.0631,50.21,1111122 
SCCF RECON,ioos:station:SCCF:11:1,2014-08-09T17:00:00Z,26.4679,-82.0631,50.75,1111122 
SCCF RECON,ioos:station:SCCF:11:1,2014-08-09T18:00:00Z,26.4679,-82.0631,51.91,1111122 
SCCF RECON,ioos:station:SCCF:11:1,2014-08-09T19:00:00Z,26.4679,-82.0631,52.9,1111122 
SCCF RECON,ioos:station:SCCF:11:1,2014-08-09T20:00:00Z,26.4679,-82.0631,52.81,1111122 
SCCF RECON,ioos:station:SCCF:11:1,2014-08-09T21:00:00Z,26.4679,-82.0631,51.98,1111122 
SCCF RECON,ioos:station:SCCF:11:1,2014-08-09T22:00:00Z,26.4679,-82.0631,54.52,1111122 
SCCF RECON,ioos:station:SCCF:11:1,2014-08-09T23:00:00Z,26.4679,-82.0631,56.07,1111122 
SCCF RECON,ioos:station:SCCF:11:1,2014-08-10T00:00:00Z,26.4679,-82.0631,59.09,1111122 
SCCF RECON,ioos:station:SCCF:11:1,2014-08-10T01:00:00Z,26.4679,-82.0631,60.85,1111122 
SCCF RECON,ioos:station:SCCF:11:1,2014-08-10T02:00:00Z,26.4679,-82.0631,62.23,1111122 
SCCF RECON,ioos:station:SCCF:11:1,2014-08-10T03:00:00Z,26.4679,-82.0631,60.55,1111122 
SCCF RECON,ioos:station:SCCF:11:1,2014-08-10T04:00:00Z,26.4679,-82.0631,62.0,1111122 
SCCF RECON,ioos:station:SCCF:11:1,2014-08-10T05:00:00Z,26.4679,-82.0631,38.02,1111122 
SCCF RECON,ioos:station:SCCF:11:1,2014-08-10T06:00:00Z,26.4679,-82.0631,33.54,1111122 
SCCF RECON,ioos:station:SCCF:11:1,2014-08-10T07:00:00Z,26.4679,-82.0631,31.9,1111122 
SCCF RECON,ioos:station:SCCF:11:1,2014-08-10T08:00:00Z,26.4679,-82.0631,31.59,1111122 
SCCF RECON,ioos:station:SCCF:11:1,2014-08-10T09:00:00Z,26.4679,-82.0631,37.52,1111122 
SCCF RECON,ioos:station:SCCF:11:1,2014-08-10T10:00:00Z,26.4679,-82.0631,36.66,1111122 
SCCF RECON,ioos:station:SCCF:11:1,2014-08-10T11:00:00Z,26.4679,-82.0631,37.78,1111122 
SCCF RECON,ioos:station:SCCF:11:1,2014-08-10T12:00:00Z,26.4679,-82.0631,39.37,1111122 
SCCF RECON,ioos:station:SCCF:11:1,2014-08-10T13:00:00Z,26.4679,-82.0631,43.25,1111122 
SCCF RECON,ioos:station:SCCF:11:1,2014-08-10T14:00:00Z,26.4679,-82.0631,39.55,1111122 
SCCF RECON,ioos:station:SCCF:11:1,2014-08-10T15:00:00Z,26.4679,-82.0631,40.52,1111122 
SCCF RECON,ioos:station:SCCF:11:1,2014-08-10T16:00:00Z,26.4679,-82.0631,50.17,1111122 
SCCF RECON,ioos:station:SCCF:11:1,2014-08-10T17:00:00Z,26.4679,-82.0631,51.16,1111122 
SCCF RECON,ioos:station:SCCF:11:1,2014-08-10T18:00:00Z,26.4679,-82.0631,53.6,1111122 
SCCF RECON,ioos:station:SCCF:11:1,2014-08-10T19:00:00Z,26.4679,-82.0631,50.18,1111122 
SCCF RECON,ioos:station:SCCF:11:1,2014-08-10T20:00:00Z,26.4679,-82.0631,48.16,1111122 
SCCF RECON,ioos:station:SCCF:11:1,2014-08-10T21:00:00Z,26.4679,-82.0631,50.08,1111122 
SCCF RECON,ioos:station:SCCF:11:1,2014-08-10T22:00:00Z,26.4679,-82.0631,60.4,1111122 
SCCF RECON,ioos:station:SCCF:11:1,2014-08-10T23:00:00Z,26.4679,-82.0631,59.11,1111122 
SCCF RECON,ioos:station:SCCF:11:1,2014-08-11T00:00:00Z,26.4679,-82.0631,63.01,1111122 
SCCF RECON,ioos:station:SCCF:11:1,2014-08-11T01:00:00Z,26.4679,-82.0631,61.72,1111122 
SCCF RECON,ioos:station:SCCF:11:1,2014-08-11T02:00:00Z,26.4679,-82.0631,60.56,1111122 
SCCF RECON,ioos:station:SCCF:11:1,2014-08-11T03:00:00Z,26.4679,-82.0631,62.94,1111122 
SCCF RECON,ioos:station:SCCF:11:1,2014-08-11T04:00:00Z,26.4679,-82.0631,70.05,1111122 
SCCF RECON,ioos:station:SCCF:11:1,2014-08-11T05:00:00Z,26.4679,-82.0631,63.07,1111122 
SCCF RECON,ioos:station:SCCF:11:1,2014-08-11T06:00:00Z,26.4679,-82.0631,95.92,1111122 
SCCF RECON,ioos:station:SCCF:11:1,2014-08-11T07:00:00Z,26.4679,-82.0631,33.31,1111122 
SCCF RECON,ioos:station:SCCF:11:1,2014-08-11T08:00:00Z,26.4679,-82.0631,35.56,1111122 
SCCF RECON,ioos:station:SCCF:11:1,2014-08-11T09:00:00Z,26.4679,-82.0631,33.46,1111122 
SCCF RECON,ioos:station:SCCF:11:1,2014-08-11T10:00:00Z,26.4679,-82.0631,35.65,1111122 
SCCF RECON,ioos:station:SCCF:11:1,2014-08-11T11:00:00Z,26.4679,-82.0631,37.09,1111122 
SCCF RECON,ioos:station:SCCF:11:1,2014-08-11T12:00:00Z,26.4679,-82.0631,39.44,1111122 
SCCF RECON,ioos:station:SCCF:11:1,2014-08-11T13:00:00Z,26.4679,-82.0631,37.37,1111122 
SCCF RECON,ioos:station:SCCF:11:1,2014-08-11T14:00:00Z,26.4679,-82.0631,43.05,1111122 
SCCF RECON,ioos:station:SCCF:11:1,2014-08-11T15:00:00Z,26.4679,-82.0631,43.14,1111122 
SCCF RECON,ioos:station:SCCF:11:1,2014-08-11T16:00:00Z,26.4679,-82.0631,45.59,1111122 
SCCF RECON,ioos:station:SCCF:11:1,2014-08-11T17:00:00Z,26.4679,-82.0631,47.15,1111122 
SCCF RECON,ioos:station:SCCF:11:1,2014-08-11T18:00:00Z,26.4679,-82.0631,51.0,1111122 
SCCF RECON,ioos:station:SCCF:11:1,2014-08-11T19:00:00Z,26.4679,-82.0631,43.41,1111122 
SCCF RECON,ioos:station:SCCF:11:1,2014-08-11T20:00:00Z,26.4679,-82.0631,58.21,1111122 
SCCF RECON,ioos:station:SCCF:11:1,2014-08-11T21:00:00Z,26.4679,-82.0631,55.27,1111122 
SCCF RECON,ioos:station:SCCF:11:1,2014-08-11T22:00:00Z,26.4679,-82.0631,58.3,1111122 
SCCF RECON,ioos:station:SCCF:11:1,2014-08-11T23:00:00Z,26.4679,-82.0631,56.27,1111122 
SCCF RECON,ioos:station:SCCF:11:1,2014-08-12T00:00:00Z,26.4679,-82.0631,60.47,1111122 
SCCF RECON,ioos:station:SCCF:11:1,2014-08-12T01:00:00Z,26.4679,-82.0631,59.19,1111122 
SCCF RECON,ioos:station:SCCF:11:1,2014-08-12T02:00:00Z,26.4679,-82.0631,45.06,1111122 
SCCF RECON,ioos:station:SCCF:11:1,2014-08-12T03:00:00Z,26.4679,-82.0631,46.67,1111122 
SCCF RECON,ioos:station:SCCF:11:1,2014-08-12T04:00:00Z,26.4679,-82.0631,46.93,1111122 
SCCF RECON,ioos:station:SCCF:11:1,2014-08-12T05:00:00Z,26.4679,-82.0631,64.91,1111122 
SCCF RECON,ioos:station:SCCF:11:1,2014-08-12T06:00:00Z,26.4679,-82.0631,96.45,1111122 
SCCF RECON,ioos:station:SCCF:11:1,2014-08-12T07:00:00Z,26.4679,-82.0631,96.41,1111122 
SCCF RECON,ioos:station:SCCF:11:1,2014-08-12T08:00:00Z,26.4679,-82.0631,96.56,1111122 
SCCF RECON,ioos:station:SCCF:11:1,2014-08-12T09:00:00Z,26.4679,-82.0631,97.67,1111122 
SCCF RECON,ioos:station:SCCF:11:1,2014-08-12T10:00:00Z,26.4679,-82.0631,100.28,1111122 
SCCF RECON,ioos:station:SCCF:11:1,2014-08-12T11:00:00Z,26.4679,-82.0631,102.27,1111122 